Location: Augirein
(42.9320°N, 0.9181°E)
Time: 19:26:11
(UTC+00:00)

Cosmos 1812 Rocket - Pass Details

Date: 20 June 2021
Orbit: 606 x 631 km, 82.5° (Epoch: 02 August)

Event Time Altitude Azimuth Distance (km) Brightness Sun altitude
Rises 00:12:57 0° 346° (NNW) 2,880 8.2 -23.5°
Reaches altitude 10° 00:15:13 10° 342° (NNW) 1,973 7.1 -23.5°
Enters shadow 00:19:25 51° 268° (W) 771 3.9 -23.4°
